This demonstration page uses our WeatherBlox Daily Observations layout. Learn more.

Left ArrowRight Arrow

39.51506, -84.39828

Hourly Observations for May 18, 2019

Temp ( °F °C ) Dew Point ( °F °C ) Humidity (%) Winds ( mph kmh ) Pressure ( in mb ) Visibility ( mi km ) Precip ( " mm )
12:15 am 00:15 Partly Cloudy 65 18.4 64 17.7 96 96 Calm 29.92 1013 10 16 0.00 0.00
12:35 am 00:35 Mostly Cloudy 65 18.6 65 18.1 97 97 Calm 29.93 1013 10 16 0.00 0.00
12:55 am 00:55 Partly Cloudy 66 18.8 65 18.1 96 96 Calm 29.93 1013 10 16 0.00 0.00
1:15 am 01:15 Clear 64 17.6 63 17.2 98 98 Calm 29.93 1014 10 16 0.00 0.00
1:35 am 01:35 Clear 64 17.7 63 17.3 98 98 Calm 29.92 1013 10 16 0.00 0.00
1:55 am 01:55 Clear 64 17.7 63 17.3 98 98 Calm 29.92 1013 7 11 0.00 0.00
2:15 am 02:15 Clear with Mist and Fog 63 17.3 62 16.9 98 98 Calm 29.92 1013 7 11 0.00 0.00
2:35 am 02:35 Clear with Mist and Fog 63 17 62 16.7 98 98 Calm 29.91 1013 7 11 0.00 0.00
2:55 am 02:55 Clear with Mist and Fog 62 16.9 62 16.7 99 99 Calm 29.91 1013 7 11 0.00 0.00
3:15 am 03:15 Clear with Mist and Fog 63 17.2 63 17 99 99 Calm 29.91 1013 4 6 0.00 0.00
3:35 am 03:35 Mostly Cloudy with Fog 61 16 60 15.8 99 99 Calm 29.91 1013 1 1 0.00 0.00
3:55 am 03:55 Mostly Cloudy with Mist and Fog 61 16 60 15.8 99 99 Calm 29.91 1013 1 2 0.00 0.00
4:15 am 04:15 Mostly Cloudy with Fog 60 15.6 60 15.4 99 99 Calm 29.92 1013 0 0 0.00 0.00
4:35 am 04:35 Mostly Cloudy with Fog 60 15.6 60 15.5 99 99 Calm 29.92 1013 0 0 0.00 0.00
4:55 am 04:55 Mostly Cloudy with Fog 60 15.5 60 15.4 99 99 Calm 29.92 1013 0 0 0.00 0.00
5:15 am 05:15 Mostly Cloudy with Fog 59 14.9 59 14.8 99 99 Calm 29.93 1013 0 0 0.00 0.00
5:35 am 05:35 Mostly Cloudy with Fog 60 15.5 60 15.4 99 99 Calm 29.93 1013 1 1 0.00 0.00
5:55 am 05:55 Mostly Cloudy with Fog 60 15.3 59 15.2 99 99 Calm 29.94 1014 1 1 0.00 0.00
6:15 am 06:15 Mostly Cloudy with Fog 58 14.7 58 14.6 99 99 W 3 6 29.94 1014 0 0 0.00 0.00
6:35 am 06:35 Mostly Cloudy with Fog 60 15.3 59 15.2 99 99 Calm 29.95 1014 5 8 0.00 0.00
6:55 am 06:55 Mostly Cloudy with Fog 60 15.3 59 15.2 99 99 Calm 29.96 1014 5 8 0.00 0.00
7:15 am 07:15 Mostly Cloudy with Fog 60 15.5 60 15.5 100 100 Calm 29.96 1014 0 0 0.00 0.00
7:35 am 07:35 Sunny with Mist and Fog 62 16.7 62 16.7 100 100 Calm 29.96 1015 3 4 0.00 0.00
7:55 am 07:55 Sunny with Mist and Fog 65 18.3 65 18.2 99 99 SW 3 6 29.96 1015 4 6 0.00 0.00
8:15 am 08:15 Sunny 66 19 65 18.4 96 96 WSW 3 6 29.96 1014 7 11 0.00 0.00
8:35 am 08:35 Sunny with Mist and Fog 68 20 64 17.8 87 87 WSW 9 15 29.96 1015 7 11 0.00 0.00
8:55 am 08:55 Sunny 69 20.6 64 17.9 85 85 SW 8 13 29.96 1015 10 16 0.00 0.00
9:15 am 09:15 Sunny 72 22.3 65 18.2 78 78 SW 7 11 29.96 1015 10 16 0.00 0.00
9:35 am 09:35 Sunny 74 23.3 65 18.3 74 74 SW 7 11 29.96 1014 10 16 0.00 0.00
9:55 am 09:55 Sunny 75 24 66 18.7 72 72 SW 8 13 29.96 1014 10 16 0.00 0.00
10:15 am 10:15 Sunny 77 25.1 67 19.3 70 70 SW 8 13 29.95 1014 10 16 0.00 0.00
10:35 am 10:35 Sunny 79 25.9 66 19.1 66 66 WSW 7 11 29.95 1014 10 16 0.00 0.00
10:55 am 10:55 Sunny 80 26.5 66 19 63 63 WSW 9 15 29.94 1014 10 16 0.00 0.00
11:15 am 11:15 Sunny 80 26.8 67 19.2 63 63 SW 8 13 29.94 1014 10 16 0.00 0.00
11:35 am 11:35 Sunny 82 27.5 67 19.4 61 61 WSW 7 11 29.94 1014 10 16 0.00 0.00
11:55 am 11:55 Sunny 82 27.8 67 19.3 60 60 WSW 9 15 29.93 1013 10 16 0.00 0.00
12:15 pm 12:15 Partly Cloudy 82 28 67 19.2 59 59 SW 13 20 29.92 1013 10 16 0.00 0.00
12:35 pm 12:35 Sunny 83 28.2 66 19 57 57 SSW 13 20 29.91 1013 10 16 0.00 0.00
12:55 pm 12:55 Sunny 84 28.8 67 19.5 57 57 WSW 9 15 29.90 1013 10 16 0.00 0.00
1:15 pm 13:15 Partly Cloudy 84 29 67 19.4 56 56 SW 12 19 29.90 1013 10 16 0.00 0.00
1:35 pm 13:35 Partly Cloudy 84 28.9 66 18.8 54 54 WSW 12 19 29.89 1012 10 16 0.00 0.00
1:55 pm 13:55 Partly Cloudy 84 28.7 65 18.3 53 53 SW 9 15 29.88 1012 10 16 0.00 0.00
2:15 pm 14:15 Partly Cloudy 84 28.7 63 17 49 49 SW 13 20 29.88 1012 10 16 0.00 0.00
2:35 pm 14:35 Partly Cloudy 86 30.1 64 18 48 48 SW 14 22 29.88 1012 10 16 0.00 0.00
2:55 pm 14:55 Mostly Cloudy 85 29.5 64 17.6 49 49 SW 16 26 29.87 1012 10 16 0.00 0.00
3:15 pm 15:15 Partly Cloudy 87 30.4 63 17.4 46 46 WSW 15 24 29.86 1011 10 16 0.00 0.00
3:35 pm 15:35 Partly Cloudy 86 30.1 64 17.6 47 47 WSW 15 24 29.85 1011 10 16 0.00 0.00
3:55 pm 15:55 Mostly Cloudy 84 28.9 63 17.3 50 50 SW 17 28 29.85 1011 10 16 0.00 0.00
4:15 pm 16:15 Partly Cloudy 87 30.3 64 17.9 47 47 WSW 13 20 29.84 1011 10 16 0.00 0.00
4:35 pm 16:35 Partly Cloudy 85 29.4 64 17.9 50 50 WSW 13 20 29.84 1011 10 16 0.00 0.00
4:55 pm 16:55 Partly Cloudy 87 30.3 62 16.8 44 44 SW 16 26 29.84 1011 10 16 0.00 0.00
5:15 pm 17:15 Partly Cloudy 87 30.4 63 17.4 46 46 WSW 15 24 29.84 1011 10 16 0.00 0.00
5:35 pm 17:35 Partly Cloudy 85 29.7 63 17.2 47 47 SW 17 28 29.85 1011 10 16 0.00 0.00
5:55 pm 17:55 Sunny 86 29.9 63 17 46 46 WSW 14 22 29.85 1011 10 16 0.00 0.00
6:35 pm 18:35 Partly Cloudy 85 29.4 64 17.5 49 49 WSW 12 19 29.85 1011 10 16 0.00 0.00
6:55 pm 18:55 Partly Cloudy 84 29.1 63 17.1 48 48 WSW 12 19 29.84 1011 10 16 0.00 0.00
7:15 pm 19:15 Sunny 84 28.9 64 17.6 50 50 SW 12 19 29.84 1011 10 16 0.00 0.00
7:35 pm 19:35 Sunny 83 28.1 63 17.4 52 52 SW 10 17 29.85 1011 10 16 0.00 0.00
7:55 pm 19:55 Sunny 82 27.7 64 17.5 54 54 SSW 8 13 29.85 1011 10 16 0.00 0.00
8:15 pm 20:15 Sunny 81 27.2 63 17.4 55 55 SSW 8 13 29.85 1011 10 16 0.00 0.00
8:35 pm 20:35 Sunny 80 26.6 63 17.4 57 57 SSW 7 11 29.84 1010 10 16 0.00 0.00
8:55 pm 20:55 Clear 78 25.5 64 17.5 61 61 SW 6 9 29.84 1011 10 16 0.00 0.00
9:15 pm 21:15 Clear 76 24.2 64 17.7 67 67 SW 5 7 29.85 1011 10 16 0.00 0.00
9:35 pm 21:35 Clear 72 22.4 65 18.2 77 77 WSW 3 6 29.85 1011 10 16 0.00 0.00
9:55 pm 21:55 Clear 71 21.4 65 18.2 82 82 SW 3 6 29.85 1011 10 16 0.00 0.00
10:15 pm 22:15 Clear 72 22 65 18.1 79 79 W 5 7 29.86 1011 10 16 0.00 0.00
10:35 pm 22:35 Clear 71 21.6 64 18 80 80 Calm 29.86 1011 10 16 0.00 0.00
10:55 pm 22:55 Clear 69 20.4 65 18.3 88 88 Calm 29.87 1012 10 16 0.00 0.00
11:15 pm 23:15 Clear 70 21.2 64 18 82 82 WSW 5 7 29.87 1012 10 16 0.00 0.00
11:35 pm 23:35 Clear 71 21.6 64 18 80 80 WSW 5 7 29.87 1012 10 16 0.00 0.00
11:55 pm 23:55 Clear 71 21.4 64 17.9 81 81 W 3 6 29.87 1012 10 16 0.00 0.00

Powered by AerisWeather